owner,sensor,date,latitude,longitude,vertical_datum,sea_water_practical_salinity,qcFlag 
LUMCON,ioos:station:LUMCON:wisl1:1,2019-04-01T00:00:00Z,29.1144,-90.1840,2.343,19.42,1111122 
LUMCON,ioos:station:LUMCON:wisl1:1,2019-04-01T00:15:00Z,29.1144,-90.1840,2.346,19.38,1111122 
LUMCON,ioos:station:LUMCON:wisl1:1,2019-04-01T00:30:00Z,29.1144,-90.1840,2.359,19.35,1111122 
LUMCON,ioos:station:LUMCON:wisl1:1,2019-04-01T00:45:00Z,29.1144,-90.1840,2.378,19.33,1111122 
LUMCON,ioos:station:LUMCON:wisl1:1,2019-04-01T01:00:00Z,29.1144,-90.1840,2.375,19.31,1111122 
LUMCON,ioos:station:LUMCON:wisl1:1,2019-04-01T01:15:00Z,29.1144,-90.1840,2.376,19.24,1111122 
LUMCON,ioos:station:LUMCON:wisl1:1,2019-04-01T01:30:00Z,29.1144,-90.1840,2.389,19.22,1111122 
LUMCON,ioos:station:LUMCON:wisl1:1,2019-04-01T01:45:00Z,29.1144,-90.1840,2.395,19.19,1111122 
LUMCON,ioos:station:LUMCON:wisl1:1,2019-04-01T02:00:00Z,29.1144,-90.1840,2.402,19.14,1111122 
LUMCON,ioos:station:LUMCON:wisl1:1,2019-04-01T02:15:00Z,29.1144,-90.1840,2.391,19.01,1111122 
LUMCON,ioos:station:LUMCON:wisl1:1,2019-04-01T02:30:00Z,29.1144,-90.1840,2.406,18.98,1111122 
LUMCON,ioos:station:LUMCON:wisl1:1,2019-04-01T02:45:00Z,29.1144,-90.1840,2.404,18.91,1111122 
LUMCON,ioos:station:LUMCON:wisl1:1,2019-04-01T03:00:00Z,29.1144,-90.1840,2.407,18.9,1111122 
LUMCON,ioos:station:LUMCON:wisl1:1,2019-04-01T03:15:00Z,29.1144,-90.1840,2.399,18.82,1111122 
LUMCON,ioos:station:LUMCON:wisl1:1,2019-04-01T03:30:00Z,29.1144,-90.1840,2.407,18.74,1111122 
LUMCON,ioos:station:LUMCON:wisl1:1,2019-04-01T03:45:00Z,29.1144,-90.1840,2.401,18.81,1111122 
LUMCON,ioos:station:LUMCON:wisl1:1,2019-04-01T04:00:00Z,29.1144,-90.1840,2.402,18.74,1111122 
LUMCON,ioos:station:LUMCON:wisl1:1,2019-04-01T04:15:00Z,29.1144,-90.1840,2.406,18.74,1111122 
LUMCON,ioos:station:LUMCON:wisl1:1,2019-04-01T04:30:00Z,29.1144,-90.1840,2.377,18.84,1111122 
LUMCON,ioos:station:LUMCON:wisl1:1,2019-04-01T04:45:00Z,29.1144,-90.1840,2.366,18.91,1111122 
LUMCON,ioos:station:LUMCON:wisl1:1,2019-04-01T05:00:00Z,29.1144,-90.1840,2.36,18.91,1111122 
LUMCON,ioos:station:LUMCON:wisl1:1,2019-04-01T05:15:00Z,29.1144,-90.1840,2.338,18.94,1111122 
LUMCON,ioos:station:LUMCON:wisl1:1,2019-04-01T05:30:00Z,29.1144,-90.1840,2.352,19.03,1111122 
LUMCON,ioos:station:LUMCON:wisl1:1,2019-04-01T05:45:00Z,29.1144,-90.1840,2.349,19.14,1111122 
LUMCON,ioos:station:LUMCON:wisl1:1,2019-04-01T06:00:00Z,29.1144,-90.1840,2.33,19.15,1111122 
LUMCON,ioos:station:LUMCON:wisl1:1,2019-04-01T06:15:00Z,29.1144,-90.1840,2.326,19.2,1111122 
LUMCON,ioos:station:LUMCON:wisl1:1,2019-04-01T06:30:00Z,29.1144,-90.1840,2.326,19.15,1111122 
LUMCON,ioos:station:LUMCON:wisl1:1,2019-04-01T06:45:00Z,29.1144,-90.1840,2.308,19.14,1111122 
LUMCON,ioos:station:LUMCON:wisl1:1,2019-04-01T07:00:00Z,29.1144,-90.1840,2.308,19.18,1111122 
LUMCON,ioos:station:LUMCON:wisl1:1,2019-04-01T07:15:00Z,29.1144,-90.1840,2.301,19.17,1111122 
LUMCON,ioos:station:LUMCON:wisl1:1,2019-04-01T07:30:00Z,29.1144,-90.1840,2.276,19.17,1111122 
LUMCON,ioos:station:LUMCON:wisl1:1,2019-04-01T07:45:00Z,29.1144,-90.1840,2.263,19.12,1111122 
LUMCON,ioos:station:LUMCON:wisl1:1,2019-04-01T08:00:00Z,29.1144,-90.1840,2.254,19.1,1111122 
LUMCON,ioos:station:LUMCON:wisl1:1,2019-04-01T08:15:00Z,29.1144,-90.1840,2.259,19.08,1111122 
LUMCON,ioos:station:LUMCON:wisl1:1,2019-04-01T08:30:00Z,29.1144,-90.1840,2.273,19.05,1111122 
LUMCON,ioos:station:LUMCON:wisl1:1,2019-04-01T08:45:00Z,29.1144,-90.1840,2.27,19.01,1111122 
LUMCON,ioos:station:LUMCON:wisl1:1,2019-04-01T09:00:00Z,29.1144,-90.1840,2.281,18.97,1111122 
LUMCON,ioos:station:LUMCON:wisl1:1,2019-04-01T09:15:00Z,29.1144,-90.1840,2.276,18.81,1111122 
LUMCON,ioos:station:LUMCON:wisl1:1,2019-04-01T09:30:00Z,29.1144,-90.1840,2.26,18.73,1111122 
LUMCON,ioos:station:LUMCON:wisl1:1,2019-04-01T09:45:00Z,29.1144,-90.1840,2.284,18.76,1111122 
LUMCON,ioos:station:LUMCON:wisl1:1,2019-04-01T10:00:00Z,29.1144,-90.1840,2.3,18.53,1111122 
LUMCON,ioos:station:LUMCON:wisl1:1,2019-04-01T10:15:00Z,29.1144,-90.1840,2.259,18.44,1111122 
LUMCON,ioos:station:LUMCON:wisl1:1,2019-04-01T10:30:00Z,29.1144,-90.1840,2.287,18.44,1111122 
LUMCON,ioos:station:LUMCON:wisl1:1,2019-04-01T10:45:00Z,29.1144,-90.1840,2.288,18.22,1111122 
LUMCON,ioos:station:LUMCON:wisl1:1,2019-04-01T11:00:00Z,29.1144,-90.1840,2.275,18.15,1111122 
LUMCON,ioos:station:LUMCON:wisl1:1,2019-04-01T11:15:00Z,29.1144,-90.1840,2.292,18.15,1111122 
LUMCON,ioos:station:LUMCON:wisl1:1,2019-04-01T11:30:00Z,29.1144,-90.1840,2.313,18.15,1111122 
LUMCON,ioos:station:LUMCON:wisl1:1,2019-04-01T11:45:00Z,29.1144,-90.1840,2.298,17.97,1111122 
LUMCON,ioos:station:LUMCON:wisl1:1,2019-04-01T12:00:00Z,29.1144,-90.1840,2.296,17.95,1111122 
LUMCON,ioos:station:LUMCON:wisl1:1,2019-04-01T12:15:00Z,29.1144,-90.1840,2.307,17.98,1111122 
LUMCON,ioos:station:LUMCON:wisl1:1,2019-04-01T12:30:00Z,29.1144,-90.1840,2.303,17.89,1111122 
LUMCON,ioos:station:LUMCON:wisl1:1,2019-04-01T12:45:00Z,29.1144,-90.1840,2.303,17.78,1111122 
LUMCON,ioos:station:LUMCON:wisl1:1,2019-04-01T13:00:00Z,29.1144,-90.1840,2.337,17.84,1111122 
LUMCON,ioos:station:LUMCON:wisl1:1,2019-04-01T13:15:00Z,29.1144,-90.1840,2.33,17.81,1111122 
LUMCON,ioos:station:LUMCON:wisl1:1,2019-04-01T13:30:00Z,29.1144,-90.1840,2.347,18.42,1111122 
LUMCON,ioos:station:LUMCON:wisl1:1,2019-04-01T13:45:00Z,29.1144,-90.1840,2.342,18.32,1111122 
LUMCON,ioos:station:LUMCON:wisl1:1,2019-04-01T14:00:00Z,29.1144,-90.1840,2.349,18.42,1111122 
LUMCON,ioos:station:LUMCON:wisl1:1,2019-04-01T14:15:00Z,29.1144,-90.1840,2.362,18.03,1111122 
LUMCON,ioos:station:LUMCON:wisl1:1,2019-04-01T14:30:00Z,29.1144,-90.1840,2.371,17.84,1111122 
LUMCON,ioos:station:LUMCON:wisl1:1,2019-04-01T14:45:00Z,29.1144,-90.1840,2.374,17.86,1111122 
LUMCON,ioos:station:LUMCON:wisl1:1,2019-04-01T15:00:00Z,29.1144,-90.1840,2.378,17.97,1111122 
LUMCON,ioos:station:LUMCON:wisl1:1,2019-04-01T15:15:00Z,29.1144,-90.1840,2.384,18.34,1111122 
LUMCON,ioos:station:LUMCON:wisl1:1,2019-04-01T15:30:00Z,29.1144,-90.1840,2.389,18.43,1111122 
LUMCON,ioos:station:LUMCON:wisl1:1,2019-04-01T15:45:00Z,29.1144,-90.1840,2.383,18.53,1111122 
LUMCON,ioos:station:LUMCON:wisl1:1,2019-04-01T16:00:00Z,29.1144,-90.1840,2.387,18.56,1111122 
LUMCON,ioos:station:LUMCON:wisl1:1,2019-04-01T16:15:00Z,29.1144,-90.1840,2.398,18.57,1111122 
LUMCON,ioos:station:LUMCON:wisl1:1,2019-04-01T16:30:00Z,29.1144,-90.1840,2.403,18.54,1111122 
LUMCON,ioos:station:LUMCON:wisl1:1,2019-04-01T16:45:00Z,29.1144,-90.1840,2.392,18.44,1111122 
LUMCON,ioos:station:LUMCON:wisl1:1,2019-04-01T17:00:00Z,29.1144,-90.1840,2.379,18.1,1111122 
LUMCON,ioos:station:LUMCON:wisl1:1,2019-04-01T17:15:00Z,29.1144,-90.1840,2.373,17.81,1111122 
LUMCON,ioos:station:LUMCON:wisl1:1,2019-04-01T17:30:00Z,29.1144,-90.1840,2.366,17.61,1111122 
LUMCON,ioos:station:LUMCON:wisl1:1,2019-04-01T17:45:00Z,29.1144,-90.1840,2.358,17.46,1111122 
LUMCON,ioos:station:LUMCON:wisl1:1,2019-04-01T18:00:00Z,29.1144,-90.1840,2.354,17.31,1111122 
LUMCON,ioos:station:LUMCON:wisl1:1,2019-04-01T18:15:00Z,29.1144,-90.1840,2.35,17.19,1111122 
LUMCON,ioos:station:LUMCON:wisl1:1,2019-04-01T18:30:00Z,29.1144,-90.1840,2.344,17.04,1111122 
LUMCON,ioos:station:LUMCON:wisl1:1,2019-04-01T18:45:00Z,29.1144,-90.1840,2.353,16.94,1111122 
LUMCON,ioos:station:LUMCON:wisl1:1,2019-04-01T19:00:00Z,29.1144,-90.1840,2.343,16.85,1111122 
LUMCON,ioos:station:LUMCON:wisl1:1,2019-04-01T19:15:00Z,29.1144,-90.1840,2.344,16.79,1111122 
LUMCON,ioos:station:LUMCON:wisl1:1,2019-04-01T19:30:00Z,29.1144,-90.1840,2.337,16.66,1111122 
LUMCON,ioos:station:LUMCON:wisl1:1,2019-04-01T19:45:00Z,29.1144,-90.1840,2.341,16.53,1111122 
LUMCON,ioos:station:LUMCON:wisl1:1,2019-04-01T20:00:00Z,29.1144,-90.1840,2.336,16.45,1111122 
LUMCON,ioos:station:LUMCON:wisl1:1,2019-04-01T20:15:00Z,29.1144,-90.1840,2.34,16.39,1111122 
LUMCON,ioos:station:LUMCON:wisl1:1,2019-04-01T20:30:00Z,29.1144,-90.1840,2.337,16.37,1111122 
LUMCON,ioos:station:LUMCON:wisl1:1,2019-04-01T20:45:00Z,29.1144,-90.1840,2.351,16.35,1111122 
LUMCON,ioos:station:LUMCON:wisl1:1,2019-04-01T21:00:00Z,29.1144,-90.1840,2.357,16.34,1111122 
LUMCON,ioos:station:LUMCON:wisl1:1,2019-04-01T21:15:00Z,29.1144,-90.1840,2.356,16.32,1111122 
LUMCON,ioos:station:LUMCON:wisl1:1,2019-04-01T21:30:00Z,29.1144,-90.1840,2.366,16.29,1111122 
LUMCON,ioos:station:LUMCON:wisl1:1,2019-04-01T21:45:00Z,29.1144,-90.1840,2.356,16.29,1111122 
LUMCON,ioos:station:LUMCON:wisl1:1,2019-04-01T22:00:00Z,29.1144,-90.1840,2.375,16.29,1111122 
LUMCON,ioos:station:LUMCON:wisl1:1,2019-04-01T22:15:00Z,29.1144,-90.1840,2.366,16.29,1111122 
LUMCON,ioos:station:LUMCON:wisl1:1,2019-04-01T22:30:00Z,29.1144,-90.1840,2.37,16.29,1111122 
LUMCON,ioos:station:LUMCON:wisl1:1,2019-04-01T22:45:00Z,29.1144,-90.1840,2.371,16.31,1111122 
LUMCON,ioos:station:LUMCON:wisl1:1,2019-04-01T23:00:00Z,29.1144,-90.1840,2.382,16.32,1111122 
LUMCON,ioos:station:LUMCON:wisl1:1,2019-04-01T23:15:00Z,29.1144,-90.1840,2.384,16.33,1111122 
LUMCON,ioos:station:LUMCON:wisl1:1,2019-04-01T23:30:00Z,29.1144,-90.1840,2.378,16.36,1111122 
LUMCON,ioos:station:LUMCON:wisl1:1,2019-04-01T23:45:00Z,29.1144,-90.1840,2.389,16.36,1111122 
LUMCON,ioos:station:LUMCON:wisl1:1,2019-04-02T00:00:00Z,29.1144,-90.1840,2.408,16.37,1111122 
LUMCON,ioos:station:LUMCON:wisl1:1,2019-04-02T00:15:00Z,29.1144,-90.1840,2.41,16.38,1111122 
LUMCON,ioos:station:LUMCON:wisl1:1,2019-04-02T00:30:00Z,29.1144,-90.1840,2.413,16.4,1111122 
LUMCON,ioos:station:LUMCON:wisl1:1,2019-04-02T00:45:00Z,29.1144,-90.1840,2.41,16.45,1111122 
LUMCON,ioos:station:LUMCON:wisl1:1,2019-04-02T01:00:00Z,29.1144,-90.1840,2.42,16.45,1111122 
LUMCON,ioos:station:LUMCON:wisl1:1,2019-04-02T01:15:00Z,29.1144,-90.1840,2.426,16.49,1111122 
LUMCON,ioos:station:LUMCON:wisl1:1,2019-04-02T01:30:00Z,29.1144,-90.1840,2.434,16.49,1111122 
LUMCON,ioos:station:LUMCON:wisl1:1,2019-04-02T01:45:00Z,29.1144,-90.1840,2.443,16.5,1111122 
LUMCON,ioos:station:LUMCON:wisl1:1,2019-04-02T02:00:00Z,29.1144,-90.1840,2.436,16.59,1111122 
LUMCON,ioos:station:LUMCON:wisl1:1,2019-04-02T02:15:00Z,29.1144,-90.1840,2.453,16.55,1111122 
LUMCON,ioos:station:LUMCON:wisl1:1,2019-04-02T02:30:00Z,29.1144,-90.1840,2.451,16.57,1111122 
LUMCON,ioos:station:LUMCON:wisl1:1,2019-04-02T02:45:00Z,29.1144,-90.1840,2.444,16.58,1111122 
LUMCON,ioos:station:LUMCON:wisl1:1,2019-04-02T03:00:00Z,29.1144,-90.1840,2.436,16.58,1111122 
LUMCON,ioos:station:LUMCON:wisl1:1,2019-04-02T03:15:00Z,29.1144,-90.1840,2.455,16.59,1111122 
LUMCON,ioos:station:LUMCON:wisl1:1,2019-04-02T03:30:00Z,29.1144,-90.1840,2.44,16.6,1111122 
LUMCON,ioos:station:LUMCON:wisl1:1,2019-04-02T03:45:00Z,29.1144,-90.1840,2.417,16.6,1111122 
LUMCON,ioos:station:LUMCON:wisl1:1,2019-04-02T04:00:00Z,29.1144,-90.1840,2.42,16.59,1111122 
LUMCON,ioos:station:LUMCON:wisl1:1,2019-04-02T04:15:00Z,29.1144,-90.1840,2.423,16.59,1111122 
LUMCON,ioos:station:LUMCON:wisl1:1,2019-04-02T04:30:00Z,29.1144,-90.1840,2.412,16.59,1111122 
LUMCON,ioos:station:LUMCON:wisl1:1,2019-04-02T04:45:00Z,29.1144,-90.1840,2.39,16.59,1111122 
LUMCON,ioos:station:LUMCON:wisl1:1,2019-04-02T05:00:00Z,29.1144,-90.1840,2.404,16.57,1111122 
LUMCON,ioos:station:LUMCON:wisl1:1,2019-04-02T05:15:00Z,29.1144,-90.1840,2.372,16.58,1111122 
LUMCON,ioos:station:LUMCON:wisl1:1,2019-04-02T05:30:00Z,29.1144,-90.1840,2.392,16.63,1111122 
LUMCON,ioos:station:LUMCON:wisl1:1,2019-04-02T05:45:00Z,29.1144,-90.1840,2.375,16.72,1111122 
LUMCON,ioos:station:LUMCON:wisl1:1,2019-04-02T06:00:00Z,29.1144,-90.1840,2.37,16.7,1111122 
LUMCON,ioos:station:LUMCON:wisl1:1,2019-04-02T06:15:00Z,29.1144,-90.1840,2.377,16.71,1111122 
LUMCON,ioos:station:LUMCON:wisl1:1,2019-04-02T06:30:00Z,29.1144,-90.1840,2.356,16.68,1111122 
LUMCON,ioos:station:LUMCON:wisl1:1,2019-04-02T06:45:00Z,29.1144,-90.1840,2.352,16.81,1111122 
LUMCON,ioos:station:LUMCON:wisl1:1,2019-04-02T07:00:00Z,29.1144,-90.1840,2.344,16.89,1111122 
LUMCON,ioos:station:LUMCON:wisl1:1,2019-04-02T07:15:00Z,29.1144,-90.1840,2.334,17.11,1111122 
LUMCON,ioos:station:LUMCON:wisl1:1,2019-04-02T07:30:00Z,29.1144,-90.1840,2.324,17.05,1111122 
LUMCON,ioos:station:LUMCON:wisl1:1,2019-04-02T07:45:00Z,29.1144,-90.1840,2.325,17.05,1111122 
LUMCON,ioos:station:LUMCON:wisl1:1,2019-04-02T08:00:00Z,29.1144,-90.1840,2.317,17.29,1111122 
LUMCON,ioos:station:LUMCON:wisl1:1,2019-04-02T08:15:00Z,29.1144,-90.1840,2.302,17.24,1111122 
LUMCON,ioos:station:LUMCON:wisl1:1,2019-04-02T08:30:00Z,29.1144,-90.1840,2.298,17.09,1111122 
LUMCON,ioos:station:LUMCON:wisl1:1,2019-04-02T08:45:00Z,29.1144,-90.1840,2.297,17.25,1111122 
LUMCON,ioos:station:LUMCON:wisl1:1,2019-04-02T09:00:00Z,29.1144,-90.1840,2.296,17.17,1111122 
LUMCON,ioos:station:LUMCON:wisl1:1,2019-04-02T09:15:00Z,29.1144,-90.1840,2.297,17.16,1111122 
LUMCON,ioos:station:LUMCON:wisl1:1,2019-04-02T09:30:00Z,29.1144,-90.1840,2.275,17.2,1111122 
LUMCON,ioos:station:LUMCON:wisl1:1,2019-04-02T09:45:00Z,29.1144,-90.1840,2.269,17.28,1111122 
LUMCON,ioos:station:LUMCON:wisl1:1,2019-04-02T10:00:00Z,29.1144,-90.1840,2.255,17.44,1111122 
LUMCON,ioos:station:LUMCON:wisl1:1,2019-04-02T10:15:00Z,29.1144,-90.1840,2.251,17.29,1111122 
LUMCON,ioos:station:LUMCON:wisl1:1,2019-04-02T10:30:00Z,29.1144,-90.1840,2.252,17.33,1111122 
LUMCON,ioos:station:LUMCON:wisl1:1,2019-04-02T10:45:00Z,29.1144,-90.1840,2.258,17.45,1111122 
LUMCON,ioos:station:LUMCON:wisl1:1,2019-04-02T11:00:00Z,29.1144,-90.1840,2.265,17.35,1111122 
LUMCON,ioos:station:LUMCON:wisl1:1,2019-04-02T11:15:00Z,29.1144,-90.1840,2.274,17.48,1111122 
LUMCON,ioos:station:LUMCON:wisl1:1,2019-04-02T11:30:00Z,29.1144,-90.1840,2.272,17.42,1111122 
LUMCON,ioos:station:LUMCON:wisl1:1,2019-04-02T11:45:00Z,29.1144,-90.1840,2.274,17.59,1111122 
LUMCON,ioos:station:LUMCON:wisl1:1,2019-04-02T12:00:00Z,29.1144,-90.1840,2.278,17.55,1111122 
LUMCON,ioos:station:LUMCON:wisl1:1,2019-04-02T12:15:00Z,29.1144,-90.1840,2.276,17.46,1111122 
LUMCON,ioos:station:LUMCON:wisl1:1,2019-04-02T12:30:00Z,29.1144,-90.1840,2.286,17.38,1111122 
LUMCON,ioos:station:LUMCON:wisl1:1,2019-04-02T12:45:00Z,29.1144,-90.1840,2.296,17.38,1111122 
LUMCON,ioos:station:LUMCON:wisl1:1,2019-04-02T13:00:00Z,29.1144,-90.1840,2.302,17.26,1111122 
LUMCON,ioos:station:LUMCON:wisl1:1,2019-04-02T13:15:00Z,29.1144,-90.1840,2.301,17.24,1111122 
LUMCON,ioos:station:LUMCON:wisl1:1,2019-04-02T13:30:00Z,29.1144,-90.1840,2.311,17.17,1111122 
LUMCON,ioos:station:LUMCON:wisl1:1,2019-04-02T13:45:00Z,29.1144,-90.1840,2.322,17.21,1111122 
LUMCON,ioos:station:LUMCON:wisl1:1,2019-04-02T14:00:00Z,29.1144,-90.1840,2.326,17.21,1111122 
LUMCON,ioos:station:LUMCON:wisl1:1,2019-04-02T14:15:00Z,29.1144,-90.1840,2.334,17.38,1111122 
LUMCON,ioos:station:LUMCON:wisl1:1,2019-04-02T14:30:00Z,29.1144,-90.1840,2.338,17.22,1111122 
LUMCON,ioos:station:LUMCON:wisl1:1,2019-04-02T14:45:00Z,29.1144,-90.1840,2.347,17.08,1111122 
LUMCON,ioos:station:LUMCON:wisl1:1,2019-04-02T15:00:00Z,29.1144,-90.1840,2.35,17.09,1111122 
LUMCON,ioos:station:LUMCON:wisl1:1,2019-04-02T15:15:00Z,29.1144,-90.1840,2.357,17.08,1111122 
LUMCON,ioos:station:LUMCON:wisl1:1,2019-04-02T15:30:00Z,29.1144,-90.1840,2.37,17.08,1111122 
LUMCON,ioos:station:LUMCON:wisl1:1,2019-04-02T15:45:00Z,29.1144,-90.1840,2.362,17.1,1111122 
LUMCON,ioos:station:LUMCON:wisl1:1,2019-04-02T16:00:00Z,29.1144,-90.1840,2.365,17.21,1111122 
LUMCON,ioos:station:LUMCON:wisl1:1,2019-04-02T16:15:00Z,29.1144,-90.1840,2.372,17.33,1111122 
LUMCON,ioos:station:LUMCON:wisl1:1,2019-04-02T16:30:00Z,29.1144,-90.1840,2.368,17.34,1111122 
LUMCON,ioos:station:LUMCON:wisl1:1,2019-04-02T16:45:00Z,29.1144,-90.1840,2.373,17.46,1111122 
LUMCON,ioos:station:LUMCON:wisl1:1,2019-04-02T17:00:00Z,29.1144,-90.1840,2.37,17.46,1111122 
LUMCON,ioos:station:LUMCON:wisl1:1,2019-04-02T17:15:00Z,29.1144,-90.1840,2.376,17.48,1111122 
LUMCON,ioos:station:LUMCON:wisl1:1,2019-04-02T17:30:00Z,29.1144,-90.1840,2.377,17.49,1111122 
LUMCON,ioos:station:LUMCON:wisl1:1,2019-04-02T17:45:00Z,29.1144,-90.1840,2.377,17.48,1111122 
LUMCON,ioos:station:LUMCON:wisl1:1,2019-04-02T18:00:00Z,29.1144,-90.1840,2.374,17.46,1111122 
LUMCON,ioos:station:LUMCON:wisl1:1,2019-04-02T18:15:00Z,29.1144,-90.1840,2.374,17.46,1111122 
LUMCON,ioos:station:LUMCON:wisl1:1,2019-04-02T18:30:00Z,29.1144,-90.1840,2.363,17.44,1111122 
LUMCON,ioos:station:LUMCON:wisl1:1,2019-04-02T18:45:00Z,29.1144,-90.1840,2.369,17.45,1111122 
LUMCON,ioos:station:LUMCON:wisl1:1,2019-04-02T19:00:00Z,29.1144,-90.1840,2.363,17.55,1111122 
LUMCON,ioos:station:LUMCON:wisl1:1,2019-04-02T19:15:00Z,29.1144,-90.1840,2.362,17.73,1111122 
LUMCON,ioos:station:LUMCON:wisl1:1,2019-04-02T19:30:00Z,29.1144,-90.1840,2.366,17.83,1111122 
LUMCON,ioos:station:LUMCON:wisl1:1,2019-04-02T19:45:00Z,29.1144,-90.1840,2.355,18.19,1111122 
LUMCON,ioos:station:LUMCON:wisl1:1,2019-04-02T20:00:00Z,29.1144,-90.1840,2.345,18.56,1111122 
LUMCON,ioos:station:LUMCON:wisl1:1,2019-04-02T20:15:00Z,29.1144,-90.1840,2.343,18.45,1111122 
LUMCON,ioos:station:LUMCON:wisl1:1,2019-04-02T20:30:00Z,29.1144,-90.1840,2.34,18.68,1111122 
LUMCON,ioos:station:LUMCON:wisl1:1,2019-04-02T20:45:00Z,29.1144,-90.1840,2.335,18.66,1111122 
LUMCON,ioos:station:LUMCON:wisl1:1,2019-04-02T21:00:00Z,29.1144,-90.1840,2.338,18.73,1111122 
LUMCON,ioos:station:LUMCON:wisl1:1,2019-04-02T21:15:00Z,29.1144,-90.1840,2.335,18.79,1111122 
LUMCON,ioos:station:LUMCON:wisl1:1,2019-04-02T21:30:00Z,29.1144,-90.1840,2.338,18.65,1111122 
LUMCON,ioos:station:LUMCON:wisl1:1,2019-04-02T21:45:00Z,29.1144,-90.1840,2.334,18.63,1111122 
LUMCON,ioos:station:LUMCON:wisl1:1,2019-04-02T22:00:00Z,29.1144,-90.1840,2.335,19.03,1111122 
LUMCON,ioos:station:LUMCON:wisl1:1,2019-04-02T22:15:00Z,29.1144,-90.1840,2.338,19.36,1111122 
LUMCON,ioos:station:LUMCON:wisl1:1,2019-04-02T22:30:00Z,29.1144,-90.1840,2.338,18.75,1111122 
LUMCON,ioos:station:LUMCON:wisl1:1,2019-04-02T22:45:00Z,29.1144,-90.1840,2.339,18.79,1111122 
LUMCON,ioos:station:LUMCON:wisl1:1,2019-04-02T23:00:00Z,29.1144,-90.1840,2.335,18.87,1111122 
LUMCON,ioos:station:LUMCON:wisl1:1,2019-04-02T23:15:00Z,29.1144,-90.1840,2.339,18.7,1111122 
LUMCON,ioos:station:LUMCON:wisl1:1,2019-04-02T23:30:00Z,29.1144,-90.1840,2.34,18.46,1111122 
LUMCON,ioos:station:LUMCON:wisl1:1,2019-04-02T23:45:00Z,29.1144,-90.1840,2.343,18.54,1111122 
LUMCON,ioos:station:LUMCON:wisl1:1,2019-04-03T00:00:00Z,29.1144,-90.1840,2.352,18.5,1111122 
LUMCON,ioos:station:LUMCON:wisl1:1,2019-04-03T00:15:00Z,29.1144,-90.1840,2.348,18.46,1111122 
LUMCON,ioos:station:LUMCON:wisl1:1,2019-04-03T00:30:00Z,29.1144,-90.1840,2.35,18.43,1111122 
LUMCON,ioos:station:LUMCON:wisl1:1,2019-04-03T00:45:00Z,29.1144,-90.1840,2.354,18.55,1111122 
LUMCON,ioos:station:LUMCON:wisl1:1,2019-04-03T01:00:00Z,29.1144,-90.1840,2.362,18.69,1111122 
LUMCON,ioos:station:LUMCON:wisl1:1,2019-04-03T01:15:00Z,29.1144,-90.1840,2.36,18.75,1111122 
LUMCON,ioos:station:LUMCON:wisl1:1,2019-04-03T01:30:00Z,29.1144,-90.1840,2.375,18.67,1111122 
LUMCON,ioos:station:LUMCON:wisl1:1,2019-04-03T01:45:00Z,29.1144,-90.1840,2.377,18.56,1111122 
LUMCON,ioos:station:LUMCON:wisl1:1,2019-04-03T02:00:00Z,29.1144,-90.1840,2.377,18.55,1111122 
LUMCON,ioos:station:LUMCON:wisl1:1,2019-04-03T02:15:00Z,29.1144,-90.1840,2.382,18.59,1111122 
LUMCON,ioos:station:LUMCON:wisl1:1,2019-04-03T02:30:00Z,29.1144,-90.1840,2.396,18.43,1111122 
LUMCON,ioos:station:LUMCON:wisl1:1,2019-04-03T02:45:00Z,29.1144,-90.1840,2.392,18.41,1111122 
LUMCON,ioos:station:LUMCON:wisl1:1,2019-04-03T03:00:00Z,29.1144,-90.1840,2.398,18.49,1111122 
LUMCON,ioos:station:LUMCON:wisl1:1,2019-04-03T03:15:00Z,29.1144,-90.1840,2.401,18.46,1111122 
LUMCON,ioos:station:LUMCON:wisl1:1,2019-04-03T03:30:00Z,29.1144,-90.1840,2.405,18.44,1111122 
LUMCON,ioos:station:LUMCON:wisl1:1,2019-04-03T03:45:00Z,29.1144,-90.1840,2.41,18.5,1111122 
LUMCON,ioos:station:LUMCON:wisl1:1,2019-04-03T04:00:00Z,29.1144,-90.1840,2.413,18.44,1111122 
LUMCON,ioos:station:LUMCON:wisl1:1,2019-04-03T04:15:00Z,29.1144,-90.1840,2.411,18.45,1111122 
LUMCON,ioos:station:LUMCON:wisl1:1,2019-04-03T04:30:00Z,29.1144,-90.1840,2.401,18.47,1111122 
LUMCON,ioos:station:LUMCON:wisl1:1,2019-04-03T04:45:00Z,29.1144,-90.1840,2.406,18.59,1111122 
LUMCON,ioos:station:LUMCON:wisl1:1,2019-04-03T05:00:00Z,29.1144,-90.1840,2.402,18.61,1111122 
LUMCON,ioos:station:LUMCON:wisl1:1,2019-04-03T05:15:00Z,29.1144,-90.1840,2.389,18.85,1111122 
LUMCON,ioos:station:LUMCON:wisl1:1,2019-04-03T05:30:00Z,29.1144,-90.1840,2.389,18.69,1111122 
LUMCON,ioos:station:LUMCON:wisl1:1,2019-04-03T05:45:00Z,29.1144,-90.1840,2.382,19.01,1111122 
LUMCON,ioos:station:LUMCON:wisl1:1,2019-04-03T06:00:00Z,29.1144,-90.1840,2.373,19.08,1111122 
LUMCON,ioos:station:LUMCON:wisl1:1,2019-04-03T06:15:00Z,29.1144,-90.1840,2.369,19.02,1111122 
LUMCON,ioos:station:LUMCON:wisl1:1,2019-04-03T06:30:00Z,29.1144,-90.1840,2.358,18.93,1111122 
LUMCON,ioos:station:LUMCON:wisl1:1,2019-04-03T06:45:00Z,29.1144,-90.1840,2.357,18.99,1111122 
LUMCON,ioos:station:LUMCON:wisl1:1,2019-04-03T07:00:00Z,29.1144,-90.1840,2.356,18.94,1111122 
LUMCON,ioos:station:LUMCON:wisl1:1,2019-04-03T07:15:00Z,29.1144,-90.1840,2.349,18.9,1111122 
LUMCON,ioos:station:LUMCON:wisl1:1,2019-04-03T07:30:00Z,29.1144,-90.1840,2.344,18.82,1111122 
LUMCON,ioos:station:LUMCON:wisl1:1,2019-04-03T07:45:00Z,29.1144,-90.1840,2.341,18.86,1111122 
LUMCON,ioos:station:LUMCON:wisl1:1,2019-04-03T08:00:00Z,29.1144,-90.1840,2.343,18.8,1111122 
LUMCON,ioos:station:LUMCON:wisl1:1,2019-04-03T16:30:00Z,29.1144,-90.1840,2.364,18.01,1111122 
LUMCON,ioos:station:LUMCON:wisl1:1,2019-04-03T16:45:00Z,29.1144,-90.1840,2.364,17.95,1111122 
LUMCON,ioos:station:LUMCON:wisl1:1,2019-04-03T17:00:00Z,29.1144,-90.1840,2.348,17.94,1111122 
LUMCON,ioos:station:LUMCON:wisl1:1,2019-04-03T17:15:00Z,29.1144,-90.1840,2.344,17.97,1111122 
LUMCON,ioos:station:LUMCON:wisl1:1,2019-04-03T17:30:00Z,29.1144,-90.1840,2.351,17.98,1111122 
LUMCON,ioos:station:LUMCON:wisl1:1,2019-04-03T17:45:00Z,29.1144,-90.1840,2.342,17.98,1111122 
LUMCON,ioos:station:LUMCON:wisl1:1,2019-04-03T18:00:00Z,29.1144,-90.1840,2.347,18.01,1111122 
LUMCON,ioos:station:LUMCON:wisl1:1,2019-04-03T18:15:00Z,29.1144,-90.1840,2.333,18.05,1111122 
LUMCON,ioos:station:LUMCON:wisl1:1,2019-04-03T18:30:00Z,29.1144,-90.1840,2.332,18.07,1111122 
LUMCON,ioos:station:LUMCON:wisl1:1,2019-04-03T18:45:00Z,29.1144,-90.1840,2.335,18.08,1111122 
LUMCON,ioos:station:LUMCON:wisl1:1,2019-04-03T19:00:00Z,29.1144,-90.1840,2.32,18.09,1111122 
LUMCON,ioos:station:LUMCON:wisl1:1,2019-04-03T19:15:00Z,29.1144,-90.1840,2.317,18.12,1111122 
LUMCON,ioos:station:LUMCON:wisl1:1,2019-04-03T19:30:00Z,29.1144,-90.1840,2.314,18.1,1111122 
LUMCON,ioos:station:LUMCON:wisl1:1,2019-04-03T19:45:00Z,29.1144,-90.1840,2.303,18.19,1111122 
LUMCON,ioos:station:LUMCON:wisl1:1,2019-04-03T20:00:00Z,29.1144,-90.1840,2.312,18.21,1111122 
LUMCON,ioos:station:LUMCON:wisl1:1,2019-04-03T20:15:00Z,29.1144,-90.1840,2.304,18.16,1111122 
LUMCON,ioos:station:LUMCON:wisl1:1,2019-04-03T20:30:00Z,29.1144,-90.1840,2.305,18.2,1111122 
LUMCON,ioos:station:LUMCON:wisl1:1,2019-04-03T20:45:00Z,29.1144,-90.1840,2.29,18.19,1111122 
LUMCON,ioos:station:LUMCON:wisl1:1,2019-04-03T21:00:00Z,29.1144,-90.1840,2.3,18.22,1111122 
LUMCON,ioos:station:LUMCON:wisl1:1,2019-04-03T21:15:00Z,29.1144,-90.1840,2.278,18.29,1111122 
LUMCON,ioos:station:LUMCON:wisl1:1,2019-04-03T21:30:00Z,29.1144,-90.1840,2.285,18.3,1111122 
LUMCON,ioos:station:LUMCON:wisl1:1,2019-04-03T21:45:00Z,29.1144,-90.1840,2.283,18.31,1111122 
LUMCON,ioos:station:LUMCON:wisl1:1,2019-04-03T22:00:00Z,29.1144,-90.1840,2.272,18.36,1111122 
LUMCON,ioos:station:LUMCON:wisl1:1,2019-04-03T22:15:00Z,29.1144,-90.1840,2.284,19.49,1111122 
LUMCON,ioos:station:LUMCON:wisl1:1,2019-04-03T22:30:00Z,29.1144,-90.1840,2.303,19.57,1111122 
LUMCON,ioos:station:LUMCON:wisl1:1,2019-04-03T22:45:00Z,29.1144,-90.1840,2.306,19.33,1111122 
LUMCON,ioos:station:LUMCON:wisl1:1,2019-04-03T23:00:00Z,29.1144,-90.1840,2.314,19.48,1111122 
LUMCON,ioos:station:LUMCON:wisl1:1,2019-04-03T23:15:00Z,29.1144,-90.1840,2.319,19.45,1111122 
LUMCON,ioos:station:LUMCON:wisl1:1,2019-04-03T23:30:00Z,29.1144,-90.1840,2.304,18.79,1111122 